+ View the NASA Portal
+ Center for Near-Earth Object Studies
IMPORTANT:
The SSD Announcement email list is now available. Major changes are coming in the near future, including possible hostname and/or URL changes. To be notified of such changes, subscribe to this email list.
Please visit
this page
for more details.
Don't show this message again
JPL Small-Body Database Browser
Search:
[
help
]
266126 (2006 TQ16)
Classification:
Main-belt Asteroid
SPK-ID:
2266126
[
Ephemeris
|
Orbit Diagram
|
Orbital Elements
|
Mission Design
|
Physical Parameters
|
Discovery Circumstances
|
Close-Approach Data
]
[ show orbit diagram ]
Orbital Elements at Epoch 2458600.5 (2019-Apr-27.0) TDB
Reference:
JPL 9
(heliocentric ecliptic J2000)
Element
Value
Uncertainty (1-sigma)
Units
e
.1697741270614198
8.9752e-08
a
2.241434211617518
1.4902e-08
au
q
1.860896674974552
2.0758e-07
au
i
2.940384330348918
8.3905e-06
deg
node
22.47908612629662
0.0001271
deg
peri
291.2994940679757
0.00012943
deg
M
319.7516235695102
2.2047e-05
deg
t
p
2458737.535562515150
(2019-Sep-11.03556252)
7.4724e-05
TDB
period
1225.709131165906
3.36
1.2223e-05
3.346e-08
d
yr
n
.2937075288470476
2.929e-09
deg/d
Q
2.621971748260484
1.7432e-08
au
Orbit Determination Parameters
# obs. used (total)
149
data-arc span
8429 days (23.08 yr)
first obs. used
1996-10-04
last obs. used
2019-11-02
planetary ephem.
DE431
SB-pert. ephem.
SB431-N16
condition code
0
norm. resid. RMS
.527
source
ORB
producer
Otto Matic
solution date
2019-Dec-04 19:33:10
Additional Information
Earth MOID
= .848701 au
Jupiter MOID
= 2.64666 au
T_jup
= 3.613
[ show covariance matrix ]
[
Ephemeris
|
Orbit Diagram
|
Orbital Elements
|
Mission Design
|
Physical Parameters
|
Discovery Circumstances
|
Close-Approach Data
]
Physical Parameter Table
Parameter
Symbol
Value
Units
Sigma
Reference
Notes
absolute magnitude
H
17.6
n/a
MPO437226
266126 (2006 TQ16)
Discovered 2006-Oct-11 by Spacewatch at Kitt Peak
Reference:
20110218/Numbers.arc
Last Updated:
2011-02-22
[ show close-approach data ]
Alternate Designations
2006 TQ16
= 1996 TK18
[
Ephemeris
|
Orbit Diagram
|
Orbital Elements
|
Mission Design
|
Physical Parameters
|
Discovery Circumstances
|
Close-Approach Data
]
2019-Dec-11 00:52 UT
(server date/time)
Site Manager:
Ryan S. Park
Webmaster
:
Alan B. Chamberlin